Tracking 25372 objects as of 24-Jan-2022
HD Live streaming from Space Station
objects crossing your sky now

ONEWEB-0041

Track ONEWEB-0041 now!
10-day predictions
ONEWEB-0041 is classified as:


NORAD ID: 45148
Int'l Code: 2020-008T
Perigee: 1,071.7 km
Apogee: 1,099.3 km
Inclination: 87.9 °
Period: 106.8 minutes
Semi major axis: 7456 km
RCS: Unknown
Launch date: February 6, 2020
Source: United Kingdom (UK)
Launch site: TYURATAM MISSILE AND SPACE COMPLEX (TTMTR)
aabbcc
Your satellite tracking list
Your tracking list is empty




NASA's NSSDC Master Catalog

Two Line Element Set (TLE):
1 45148U 20008T   22023.90263665  .00000053  00000-0  62052-4 0  9995
2 45148  87.9366 337.3640 0018490 145.7741 214.4604 13.48336206101717
Source of the keplerian elements: AFSPC